Location: Newark
(40.4747°S, 176.7700°E)
Time: 21:58:49
(UTC+00:00)

N. Korean satellite - Visible Passes

Search period start: 29 January 2020 00:00
Search period end: 08 February 2020 00:00
Orbit: 454 x 507 km, 97.2° (Epoch: 29 January)

Date Brightness Start Highest point End Pass type
(mag) Time Alt. Az. Time Alt. Az. Time Alt. Az.
30 Jan 9.2 16:33:48 10° NE 16:37:00 27° ESE 16:40:13 10° SSE visible
31 Jan 10.0 16:09:40 10° E 16:11:43 14° ESE 16:13:47 10° SSE visible
02 Feb 8.1 16:50:13 10° NE 16:53:46 43° ESE 16:57:21 10° S visible
03 Feb 9.6 16:25:30 10° ENE 16:28:25 22° ESE 16:31:20 10° SSE visible
04 Feb 10.3 16:01:55 10° E 16:03:09 11° ESE 16:04:23 10° SE visible
06 Feb 8.7 16:41:45 10° NE 16:45:08 34° ESE 16:48:32 10° S visible
07 Feb 9.8 16:17:18 10° ENE 16:19:48 17° ESE 16:22:19 10° SSE visible
